TimeEST,TemperatureF,Dew PointF,Humidity,Sea Level PressureIn,VisibilityMPH,Wind Direction,Wind SpeedMPH,Gust SpeedMPH,PrecipitationIn,Events,Conditions,WindDirDegrees,DateUTC
12:56 AM,32.0,28.9,88,30.14,6.0,NNW,4.6,-,N/A,,Clear,330,2012-11-08 05:56:00
1:56 AM,30.2,30.2,100,30.13,4.0,NNW,4.6,-,N/A,,Clear,330,2012-11-08 06:56:00
2:56 AM,30.9,28.9,92,30.17,4.0,Calm,Calm,-,N/A,,Clear,0,2012-11-08 07:56:00
3:56 AM,30.0,28.9,96,30.17,4.0,Calm,Calm,-,N/A,,Clear,0,2012-11-08 08:56:00
4:30 AM,30.2,28.4,93,30.16,2.5,Calm,Calm,-,N/A,,Clear,0,2012-11-08 09:30:00
4:53 AM,30.2,28.4,93,30.16,3.0,NNW,3.5,-,N/A,,Clear,330,2012-11-08 09:53:00
4:56 AM,30.0,28.0,92,30.18,3.0,Calm,Calm,-,N/A,,Clear,0,2012-11-08 09:56:00
5:56 AM,28.9,28.0,96,30.21,3.0,NW,5.8,-,N/A,,Clear,310,2012-11-08 10:56:00
6:29 AM,28.4,28.4,100,30.19,2.5,Calm,Calm,-,N/A,,Clear,0,2012-11-08 11:29:00
6:56 AM,30.0,28.0,92,30.22,2.5,Calm,Calm,-,N/A,,Clear,0,2012-11-08 11:56:00
7:26 AM,30.2,28.4,93,30.21,1.5,Calm,Calm,-,N/A,,Clear,0,2012-11-08 12:26:00
7:56 AM,30.9,30.0,96,30.24,1.5,Calm,Calm,-,N/A,,Clear,0,2012-11-08 12:56:00
8:47 AM,33.8,32.0,93,30.23,2.0,Calm,Calm,-,N/A,,Clear,0,2012-11-08 13:47:00
8:56 AM,36.0,33.1,89,30.26,2.0,Calm,Calm,-,N/A,,Clear,0,2012-11-08 13:56:00
9:23 AM,37.4,33.8,87,30.24,3.0,NNW,3.5,-,N/A,,Clear,330,2012-11-08 14:23:00
9:56 AM,39.0,34.0,82,30.27,5.0,Calm,Calm,-,N/A,,Haze,0,2012-11-08 14:56:00
10:56 AM,44.1,34.0,68,30.26,8.0,Calm,Calm,-,N/A,,Clear,0,2012-11-08 15:56:00
11:56 AM,46.0,32.0,58,30.25,10.0,Variable,3.5,-,N/A,,Clear,0,2012-11-08 16:56:00
12:56 PM,48.0,33.1,56,30.23,9.0,Variable,3.5,-,N/A,,Partly Cloudy,0,2012-11-08 17:56:00
1:56 PM,50.0,32.0,50,30.21,10.0,Calm,Calm,-,N/A,,Partly Cloudy,0,2012-11-08 18:56:00
2:56 PM,51.1,33.1,50,30.19,10.0,SW,6.9,-,N/A,,Partly Cloudy,230,2012-11-08 19:56:00
3:56 PM,50.0,33.1,52,30.19,10.0,WNW,8.1,-,N/A,,Scattered Clouds,290,2012-11-08 20:56:00
4:56 PM,46.9,34.0,61,30.19,10.0,WSW,4.6,-,N/A,,Scattered Clouds,250,2012-11-08 21:56:00
5:56 PM,46.9,32.0,56,30.19,10.0,SSW,4.6,-,N/A,,Partly Cloudy,210,2012-11-08 22:56:00
6:56 PM,45.0,32.0,60,30.20,10.0,SSW,4.6,-,N/A,,Clear,210,2012-11-08 23:56:00
7:56 PM,41.0,30.9,67,30.20,10.0,SW,3.5,-,N/A,,Clear,230,2012-11-09 00:56:00
8:56 PM,39.9,30.9,70,30.20,8.0,West,3.5,-,N/A,,Clear,270,2012-11-09 01:56:00
9:56 PM,36.0,30.0,79,30.20,4.0,WNW,3.5,-,N/A,,Haze,300,2012-11-09 02:56:00
10:56 PM,36.0,30.9,82,30.20,6.0,Calm,Calm,-,N/A,,Haze,0,2012-11-09 03:56:00
11:56 PM,36.0,30.9,82,30.19,5.0,Calm,Calm,-,N/A,,Haze,0,2012-11-09 04:56:00